AirNav   Everest Fuels
 
 851 users online  

C64 Cayuse Creek USFS Airport
Cayuse Creek, Idaho, USA

GOING TO CAYUSE CREEK?


FAA INFORMATION EFFECTIVE 23 MAY 2019

Location

FAA Identifier: C64
Lat/Long: 46-39-59.7030N / 115-04-23.4520W
46-39.995050N / 115-04.390867W
46.6665842 / -115.0731811
(estimated)
Elevation: 3505 ft. / 1068.3 m (surveyed)
Variation: 18E (1985)
From city: ARPT LCTD 4 MILES S OF OLD KELLY CREEK RANGER STATION.
Time zone: UTC -7 (UTC -8 during Standard Time)
Zip code: 59820

Airport Operations

Airport use: Open to the public
Activation date: 03/1945
Control tower: no
ARTCC: SEATTLE CENTER
FSS: BOISE FLIGHT SERVICE STATION
NOTAMs facility: BOI (NOTAM-D service available)
Attendance: UNATNDD
Wind indicator: yes
Segmented circle: yes
NON STD SEGMENTED CIRCLE.

Airport Communications

CTAF: 122.9

Airport Services

Airframe service: NONE
Powerplant service: NONE
Bottled oxygen: NONE
Bulk oxygen: NONE

Runway Information

Runway 4/22

Dimensions: 1800 x 75 ft. / 549 x 23 m
Surface: turf, in fair condition
Runway edge markings: RY THLDS MKD WITH CONC "T".
RUNWAY 4  RUNWAY 22
Traffic pattern: leftleft
Runway end identifier lights: nono
Obstructions: 60 ft. tree, 150 ft. from runway, 120 ft. right of centerline, 2:1 slope to clear50 ft. trees, 85 ft. right of centerline

Airport Ownership and Management from official FAA records

Ownership: Publicly-owned
Owner: US FOREST SERVICE
12730 HWY 12
OROFINO, ID 83544
Phone 208-476-4541
Manager: ANDREW SKOWLAND
12730 HWY 12
OROFINO, ID 83544
Phone 208-476-4541

Airport Operational Statistics

Aircraft operations: avg 42/month *
100% transient general aviation
* for 12-month period ending 27 September 2016

Additional Remarks

NORMAL LNDG RWY 22.
RECOMMENDED FOR USE ONLY TO EXPERIENCED PILOTS WITH EARLY MORNING & LATE EVENING OPNS DURG SUMMER MONTHS.
NO WINTER MAINTENANCE.
TREES ON APPROACH BOTH ENDS.
BIG GAME ANIMALS AND STOCK ON AND INVOF RY.

Instrument Procedures

There are no published instrument procedures at C64.

Some nearby airports with instrument procedures:

32S - Stevensville Airport (43 nm E)
KMSO - Missoula International Airport (43 nm E)
6S5 - Ravalli County Airport (46 nm SE)
KGIC - Idaho County Airport (61 nm SW)
7S0 - Ronan Airport (67 nm NE)
 
Loc | Ops | Rwys | IFR | FBO | Links
Com | Nav | Svcs | Stats | Notes
Area around C64 (Cayuse Creek USFS Airport)
 
Road maps at: MapQuest Bing Google
 
Aerial photo
No photo
 
Sectional chart

 
Airport distance calculator
Flying to Cayuse Creek USFS Airport? Find the distance to fly.

From to C64

Sunrise and sunset
Times for 25-May-2019
 Local
(UTC-7)
 Zulu
(UTC)
Morning civil twilight04:1911:19
Sunrise04:5611:56
Sunset20:1803:18
Evening civil twilight20:5503:55

Current date and time
Zulu (UTC)  26-May-2019 00:55:48
Local (UTC-7)  25-May-2019 17:55:48
 
METAR
KP69 
38nm SW 
252352Z AUTO 00000KT 17/12 A2976 RMK AO1 SLP071 60003 T01670117 10194 20139 56018 $
KMSO 
43nm E 
252353Z 11009KT 10SM SCT100 19/06 A2980 RMK AO2 SLP085 60000 T01890056 10194 20128 56015
K6S5 
46nm SE 
260035Z AUTO 31011KT 1 1/4SM RA BKN004 BKN026 OVC031 11/06 A2981 RMK AO2
S34 
49nm N 
SuperAWOS
260000Z AUTO 00000KT 10SM 14/09 A2984
TAF
KMSO 
43nm E 
251720Z 2518/2618 VRB05KT P6SM VCSH BKN060 FM252000 28010KT P6SM -SHRA VCTS BKN050CB OVC110 TEMPO 2520/2524 VRB10G20KT 6SM SHRA OVC030 FM260100 09010KT P6SM -SHRA OVC050
NOTAMs
Click for the latest NOTAMs
NOTAMs are issued by the DoD/FAA and will open in a separate window not controlled by AirNav.

 

 
 

Would you like to see your business listed on this page?

 If your business provides an interesting product or service to pilots, flight crews, aircraft, or users of the Cayuse Creek USFS Airport, you should consider listing it here.  To start the listing process, click on the button below
 
Add a business
 

Other Pages about Cayuse Creek USFS Airport

www.flyidaho.org/...
 
Update a link
 
Copyright © AirNav, LLC. All rights reserved. Privacy Policy  Contact